This demonstration page uses our WeatherBlox Daily Observations layout. Learn more.

Left ArrowRight Arrow

34.74481, -87.66753

Hourly Observations for January 7, 2022

Temp ( °F °C ) Dew Point ( °F °C ) Humidity (%) Winds ( mph kmh ) Pressure ( in mb ) Visibility ( mi km ) Precip ( " mm )
12:53 am 00:53 Cloudy 25 -3.9 18 -7.8 75 75 NW 10 17 30.26 1025 10 16 0.00 0.00
1:53 am 01:53 Mostly Cloudy 23 -5 16 -8.9 74 74 NNW 6 9 30.27 1025 10 16 0.00 0.00
2:53 am 02:53 Cloudy 23 -5 16 -8.9 74 74 NNW 7 11 30.29 1026 10 16 0.00 0.00
3:53 am 03:53 Cloudy 22 -5.6 15 -9.4 75 75 NNW 7 11 30.30 1026 10 16 0.00 0.00
4:53 am 04:53 Cloudy 22 -5.6 15 -9.4 75 75 NNW 5 7 30.32 1027 10 16 0.00 0.00
5:53 am 05:53 Mostly Cloudy 22 -5.6 15 -9.4 75 75 NNW 6 9 30.34 1028 10 16 0.00 0.00
6:53 am 06:53 Mostly Cloudy 22 -5.6 16 -8.9 78 78 NNE 7 11 30.35 1028 10 16 0.00 0.00
7:42 am 07:42 Partly Cloudy 22 -5.6 14 -10 71 71 NNE 12 19 30.38 1029 10 16 0.00 0.00
7:53 am 07:53 Sunny 22 -5.6 14 -10 71 71 N 6 9 30.36 1028 10 16 0.00 0.00
8:53 am 08:53 Mostly Sunny 24 -4.4 16 -8.9 71 71 NE 10 17 30.39 1029 10 16 0.00 0.00
9:53 am 09:53 Mostly Sunny 26 -3.3 17 -8.3 69 69 NE 8 13 30.38 1029 10 16 0.00 0.00
10:53 am 10:53 Mostly Sunny 28 -2.2 18 -7.8 66 66 E 9 15 30.37 1029 10 16 0.00 0.00
11:53 am 11:53 Sunny 29 -1.7 18 -7.8 63 63 E 7 11 30.35 1028 10 16 0.00 0.00
12:53 pm 12:53 Sunny 31 -0.6 17 -8.3 56 56 VRB 5 7 30.34 1027 10 16 0.00 0.00
1:53 pm 13:53 Sunny 33 0.6 18 -7.8 54 54 ENE 3 6 30.33 1027 10 16 0.00 0.00
2:53 pm 14:53 Sunny 34 1.1 17 -8.3 50 50 Calm 30.33 1027 10 16 0.00 0.00
3:53 pm 15:53 Sunny 34 1.1 18 -7.8 52 52 NE 3 6 30.34 1027 10 16 0.00 0.00
4:53 pm 16:53 Sunny 32 0 21 -6.1 64 64 ENE 3 6 30.35 1028 10 16 0.00 0.00
5:53 pm 17:53 Clear 31 -0.6 21 -6.1 67 67 ENE 8 13 30.35 1028 10 16 0.00 0.00
6:53 pm 18:53 Clear 30 -1.1 22 -5.6 72 72 ENE 8 13 30.36 1028 10 16 0.00 0.00
7:53 pm 19:53 Clear 28 -2.2 21 -6.1 75 75 ENE 7 11 30.36 1028 10 16 0.00 0.00
8:53 pm 20:53 Clear 28 -2.2 21 -6.1 75 75 ENE 6 9 30.35 1028 10 16 0.00 0.00
9:53 pm 21:53 Clear 27 -2.8 20 -6.7 75 75 ENE 7 11 30.35 1028 10 16 0.00 0.00
10:53 pm 22:53 Clear 27 -2.8 20 -6.7 75 75 E 6 9 30.35 1028 10 16 0.00 0.00
11:53 pm 23:53 Clear 26 -3.3 19 -7.2 75 75 E 6 9 30.34 1028 10 16 0.00 0.00

Powered by AerisWeather